Retour au catalogue

HAIYANG 2A

ActifScienceSSO
NORAD 37781·PAYLOAD·🇨🇳 China

Lancé Aug 15, 2011 depuis Taiyuan Satellite Launch Center

Loading…

Prochains Passages (prochaines 24 heures)

TLE

FraisSource: Space-Track

Époque: Sep 14, 2026, 14:39 UTC

1 37781U 11043A   26257.61077131  .00000120  00000-0  18086-3 0  9992
2 37781  99.3446 258.0902 0003622 123.4993 236.6501 13.71464640758923

Suivez HAIYANG 2A en temps réel avec AllMySat

Download on the App Store